Regional Weather Roundup
Issued by NWS Wilmington, NC

Home | Current Version | Previous Version | Text Only | Print | Product List | Glossary On
Versions: 1 2 3 4 5 6 7 8 9 10 11 12 13 14 15 16 17 18 19 20 21 22 23 24 25 26 27 28 29 30 31 32 33 34 35 36 37 38 39 40 41 42 43 44 45 46 47 48 49 50
000
ASUS42 KILM 290010
RWRILM
RWRILM
REGIONAL HOURLY WEATHER ROUNDUP
NATIONAL WEATHER SERVICE WILMINGTON NC
700 PM EST WED JAN 28 2015

NOTE: "FAIR" INDICATES FEW OR NO CLOUDS BELOW 12,000 FEET WITH NO
SIGNIFICANT WEATHER AND/OR OBSTRUCTIONS TO VISIBILITY.

...............WFO WILMINGTON COUNTY WARNING AREA...............

......COASTAL NC AND SC COUNTIES......

CITY           SKY/WX    TMP DP  RH WIND       PRES   REMARKS
WILMINGTON     CLEAR     35  20  54 N6        30.29R WCI  30
SOUTHPORT      CLEAR     36  21  54 CALM      30.29R
N MYRTLE BEACH CLEAR     38  21  50 CALM      30.30R
MYRTLE BEACH   CLEAR     37  18  44 CALM      30.32R

......INLAND NC AND SC COUNTIES.......

CITY           SKY/WX    TMP DP  RH WIND       PRES   REMARKS
LUMBERTON      CLEAR     37  25  61 CALM      30.29R
ELIZABETHTOWN  CLEAR     35  19  52 CALM      30.30R
WHITEVILLE     CLEAR     36  19  50 CALM      30.30R
FLORENCE       CLEAR     39  24  55 CALM      30.29R
DARLINGTON     CLEAR     37  27  65 CALM      30.30S

....................REST OF NORTH CAROLINA......................

.........EASTERN NC.........

CITY           SKY/WX    TMP DP  RH WIND       PRES   REMARKS
CAPE HATTERAS  CLEAR     38  18  44 NW10G17   30.25R WCI  31
JACKSONVILLE   CLEAR     30  19  64 CALM      30.30R
MOREHEAD CITY  CLEAR     36  18  48 N7        30.28R WCI  30
KENANSVILLE    CLEAR     31  20  62 CALM      30.31R
NEW BERN       CLEAR     32  17  54 CALM      30.29R
ELIZABETH CITY CLEAR     31  12  45 NW6       30.27R WCI  25

.........CENTRAL NC.........

CITY           SKY/WX    TMP DP  RH WIND       PRES   REMARKS
RALEIGH DURHAM PTCLDY    34  14  43 CALM      30.29R
ROCKY MOUNT    CLEAR     30  15  53 CALM      30.30R
ROANOKE RAPIDS NOT AVBL
FAYETTEVILLE   CLEAR     37  17  44 CALM      30.29R
HOFFMAN        CLEAR     32  21  65 S2        30.30R

.........WESTERN NC.........

CITY           SKY/WX    TMP DP  RH WIND       PRES   REMARKS
CHARLOTTE      PTCLDY    42  15  33 CALM      30.27R
GREENSBORO     CLEAR     40  11  30 CALM      30.25R
HICKORY        NOT AVBL
BOONE          NOT AVBL
ASHEVILLE      NOT AVBL

.....................REST OF SOUTH CAROLINA.....................

.........EASTERN SC.........

CITY           SKY/WX    TMP DP  RH WIND       PRES   REMARKS
CHARLESTON     CLEAR     39  24  55 CALM      30.31R
BEAUFORT MCAS  CLEAR     42  28  57 CALM      30.30R
HILTON HEAD    CLEAR    N/A N/A N/A N3        30.30R

.........CENTRAL SC.........

CITY           SKY/WX    TMP DP  RH WIND       PRES   REMARKS
COLUMBIA       CLEAR     41  27  57 CALM      30.28R
ORANGEBURG     CLEAR     38  24  57 CALM      30.29R
SUMTER SHAW    CLEAR     39  24  54 CALM      30.27R

.........WESTERN SC.........

CITY           SKY/WX    TMP DP  RH WIND       PRES   REMARKS
GREENVILLE     NOT AVBL
ROCK HILL      CLEAR     37  20  50 CALM      30.27R
ANDERSON       CLEAR     43  18  36 CALM      30.25R
CLEMSON        NOT AVBL
GREENWOOD      CLEAR     42  19  39 CALM      30.27R


...................COASTAL AND OFFSHORE REPORTS..................

................LOCAL PIERS AND NC RESERVE................


STATION/POSITION TIME  SKY/WX   TEMP    WIND        PRES    VSBY
                                AIR SEA DIR/SP/G
                 (UTC)          (F)     (DEG/KT/KT) (MB)    (MI)
JOHNY MRCER PIER 0000            41 52  360/  4/  6 1024.9R
NC RESRV MASNBRO 2300            40     360/  1     1025.0S
OCEAN CREST PIER 0000            40 53  330/  4/  5 1024.8R
SPRINGMAID  PIER 0000            41 50  310/  2/  2 1026.1R


................COASTAL AND OFFSHORE BUOYS................


STATION/POSITION TIME  SKY/WX   TEMP    WIND        PRES    VSBY
                                AIR SEA DIR/SP/G
                 (UTC)          (F)     (DEG/KT/KT) (MB)    (MI)
DIMNDSHOAL 41025 0000            41     340/ 17/ 21 1023.6R
WVE H/P(F/S)=  6/10 WND WVE H/P(F/S)=  3/ 5 SWL H/P/D(F/S/D)=  5/ 40/10

CAPE LOOKOUT     2300            41     340/ 10/ 11 1024.3R
ONSLOW BAY 41036 NOT AVBL
5 WRITEBCH 41038 2300            45 53  350/ 16/ 17 1024.8R
MASONBORO  41110 0000               52                N/A
WVE H/P(F/S)=  3/13 WND WVE H/P(F/S)=  3/ 8 SWL H/P/D(F/S/D)=  2/100/13

WILM HARBR 41108 0000               53                N/A
WVE H/P(F/S)=  2/11 WND WVE H/P(F/S)=  2/ 3

27WRITEBCH 41037 NOT AVBL
FRYING PAN 41013 0000            46 63  350/ 14/ 19 1025.7R
WVE H/P(F/S)=  4/ 5 WND WVE H/P(F/S)=  3/ 5 SWL H/P/D(F/S/D)=  2/100/ 9

SUNST NRSH 41024 2300            45     340/  8/ 10   N/A
CAPRS NRSH 41029 2300            47      10/ 10/ 10   N/A
EDISTO     41004 0000            49 65  350/ 12/ 16 1025.5R
WVE H/P(F/S)=  4/ 6 WND WVE H/P(F/S)=  3/ 5 SWL H/P/D(F/S/D)=  3/ 6



..........OFFSHORE BUOYS BEYOND 100 NM OFFSHORE...........
.....IN A TRIANGLE---HAT TO BERMUDA TO BAHAMAS TO HAT.....


STATION/POSITION TIME  SKY/WX   TEMP    WIND        PRES    VSBY
                                AIR SEA DIR/SP/G
                 (UTC)          (F)     (DEG/KT/KT) (MB)    (MI)
150E HAT   41001 NOT AVBL
W BERMUDA  41048 2247            57 71  300/ 19/ 25 1011.7R
WVE H/P(F/S)= 12/ 9 WND WVE H/P(F/S)= 10/ 9 SWL H/P/D(F/S/D)=  7/320/11

ATLANTIC S 41049 2250            75 75  220/  8/ 17 1014.8R
WVE H/P(F/S)= 10/11 WND WVE H/P(F/S)=  2/ 3 SWL H/P/D(F/S/D)= 10/290/11

E BAHAMAS  41046 NOT AVBL
NE BAHAMAS 41047 2245            67 76  320/ 25/ 33 1015.6R
WVE H/P(F/S)= 11/ 8 WND WVE H/P(F/S)= 10/ 8 SWL H/P/D(F/S/D)=  7/350/11

120E CANVRL41010 0000            61 76  350/ 19/ 23 1022.3R
WVE H/P(F/S)=  7/14 WND WVE H/P(F/S)=  5/ 7 SWL H/P/D(F/S/D)=  3/ 10/14


END


USA.gov is the U.S. government's official web portal to all federal, state and local government web resources and services.